STARLINK-33756, 63458

Orbit data source: Space-Track

STARLINK-33756, 63458 is a payload satellite owned by SpaceX/Seattle (US) in LEO that was launched on Fri, 04 Apr 2025 UTC via an FALCON 9 launch vehicle from the Air Force Western Test Range (AFWTR). Payload-class satellites include a variety of spacecraft equipped with specific instruments for various scientific and technological missions. These include communications satellites like Starlink; space stations such as the ISS; scientific satellites like the Hubble; Earth observation satellites from companies like Planet Labs, Umbra, and HawkEye 360; GPS; miniature CubeSats for education and research; and military/defense satellites.

Loading next visibility...
Identifier
63458, 2025-069AB
Orbit
LEO
Country
Flag of USUS
Related business
Manufacturer
SpaceX/Seattle
Mission
Operational Commercial Communications
Bus & Motor
STARLINK V2MO, Unknown motor
Mass
575 kg wet, ~530 kg dry
Launch date (UTC)
2025-04-04 (1 year ago)
Launch vehicle
FALCON 9
Launch site
Air Force Western Test Range (AFWTR)
Object type
Payload
Rocket body
Debris
Shape & HBR
Box + 2 Pan, 17.7 m
Radar Cross Section
36.964 m², Large (>1 m²)

Expand to show TLE details & history
Last TLE update: 6 hours ago

TLE from 6 hours ago
0 STARLINK-33756
1 63458U 25069AB  26145.50003471  .00056890  00000-0  13086-2 0  9994
2 63458  53.1582 143.2737 0001279  76.8040 103.5446 15.42125491  5948
Epoch: 2026-05-25T12:00Z
TLE epoch observation values (Epoch: 2026-05-25T12:00:02.998Z)
Latitude
-0.37313°
Longitude
-99.54771°
Altitude
440.995 km
Speed
7.648 km/s
True Right ascension
21h 34m 12s
True Declination
0° 22' 15"
Sunlit
Object was in daylight at epoch
Visualization orbit readout
Latitude
Unknown
Longitude
Unknown
Altitude
Unknown
Speed
Unknown
Apparent Right ascension
Unknown
Apparent Declination
Unknown
Sunlit
N/A
Visualization observer readout
Local Sidereal Time
03:05:09
Azimuth
Unknown
Elevation
Unknown
Doppler factor
Unknown
Orbital elements
Apogee altitude
440.967 km
Perigee altitude
439.223 km
Semi-major axis
6,818.232 km
Eccentricity
0.00013
Inclination
53.1582°
RAAN
143.2737°
Arg. of periapsis
76.804°
True anomaly
103.55885°
Mean anomaly
103.5446°
Eccentric anomaly
103.55172°
Mean motion
3.8551 °/min
Orbital period
93.38 mins
BSTAR
0.0013086
Loading maneuver chart data...
Computing Atmospheric mass density...
Loading historical data...
Loading historical data...
Loading historical data...
Loading historical data...
Loading historical data...
Loading historical data...
Loading historical data...

Documentation

Showing up to 5 results
|